Time,TemperatureF,DewpointF,PressureIn,WindDirection,WindDirectionDegrees,WindSpeedMPH,WindSpeedGustMPH,Humidity,HourlyPrecipIn,Conditions,Clouds,dailyrainin,SoftwareType,DateUTC
2013-06-18 00:01:00,64.0,62.2,29.89,SE,144,0.0,0.0,94,0.00,,CLR,0.00,VWS V14.01,2013-06-18 04:01:00,
2013-06-18 00:02:00,64.0,62.2,29.89,SE,144,0.0,0.0,94,0.00,,CLR,0.00,VWS V14.01,2013-06-18 04:02:00,
2013-06-18 00:04:00,64.1,62.3,29.89,SE,144,0.0,0.0,94,0.00,,CLR,0.00,VWS V14.01,2013-06-18 04:04:00,
2013-06-18 00:05:00,64.1,62.3,29.89,SE,144,0.0,0.0,94,0.00,,CLR,0.00,VWS V14.01,2013-06-18 04:05:00,
2013-06-18 00:10:00,64.1,62.3,29.89,SE,144,0.0,0.0,94,0.00,,CLR,0.00,VWS V14.01,2013-06-18 04:10:00,
2013-06-18 00:15:00,64.0,62.2,29.89,SE,144,0.0,0.0,94,0.00,,CLR,0.00,VWS V14.01,2013-06-18 04:15:00,
2013-06-18 00:20:00,63.9,62.1,29.89,SE,144,0.0,0.0,94,0.00,,CLR,0.00,VWS V14.01,2013-06-18 04:20:00,
2013-06-18 00:25:00,63.9,62.1,29.89,SE,144,0.0,0.0,94,0.00,,CLR,0.00,VWS V14.01,2013-06-18 04:25:00,
2013-06-18 00:30:00,63.8,62.3,29.88,SE,144,0.0,0.0,95,0.00,,CLR,0.00,VWS V14.01,2013-06-18 04:30:00,
2013-06-18 00:35:00,63.7,62.2,29.88,SE,144,0.0,0.0,95,0.00,,CLR,0.00,VWS V14.01,2013-06-18 04:35:00,
2013-06-18 00:40:00,63.5,62.0,29.88,SE,144,0.0,0.0,95,0.00,,CLR,0.00,VWS V14.01,2013-06-18 04:40:00,
2013-06-18 00:45:00,63.5,62.0,29.88,SE,144,0.0,0.0,95,0.00,,CLR,0.00,VWS V14.01,2013-06-18 04:45:00,
2013-06-18 00:51:00,63.5,62.0,29.88,SE,144,0.0,0.0,95,0.00,,CLR,0.00,VWS V14.01,2013-06-18 04:51:00,
2013-06-18 00:56:00,63.5,62.0,29.88,SE,144,0.0,0.0,95,0.00,,CLR,0.00,VWS V14.01,2013-06-18 04:56:00,
2013-06-18 01:01:00,63.5,62.0,29.88,SE,144,0.0,0.0,95,0.00,,CLR,0.00,VWS V14.01,2013-06-18 05:01:00,
2013-06-18 01:06:00,63.4,62.0,29.88,SE,144,2.0,3.0,95,0.00,,CLR,0.00,VWS V14.01,2013-06-18 05:06:00,
2013-06-18 01:11:00,63.2,61.8,29.89,NNE,28,2.0,5.0,95,0.00,,CLR,0.00,VWS V14.01,2013-06-18 05:11:00,
2013-06-18 01:16:00,63.3,62.1,29.88,ESE,111,3.0,5.0,96,0.00,,CLR,0.00,VWS V14.01,2013-06-18 05:16:00,
2013-06-18 01:21:00,63.5,62.3,29.88,East,95,1.0,6.0,96,0.00,,CLR,0.00,VWS V14.01,2013-06-18 05:21:00,
2013-06-18 01:26:00,63.7,62.2,29.88,NE,46,3.0,6.0,95,0.00,,CLR,0.00,VWS V14.01,2013-06-18 05:26:00,
2013-06-18 01:31:00,63.8,62.3,29.88,NE,47,0.0,1.0,95,0.00,,CLR,0.00,VWS V14.01,2013-06-18 05:31:00,
2013-06-18 01:36:00,63.8,62.3,29.88,East,92,0.0,2.0,95,0.00,,CLR,0.00,VWS V14.01,2013-06-18 05:36:00,
2013-06-18 01:41:00,63.8,62.0,29.88,ENE,76,1.0,3.0,94,0.00,,CLR,0.00,VWS V14.01,2013-06-18 05:41:00,
2013-06-18 01:46:00,63.6,61.8,29.88,ENE,66,3.0,4.0,94,0.00,,CLR,0.00,VWS V14.01,2013-06-18 05:46:00,
2013-06-18 01:51:00,63.6,61.8,29.88,ENE,63,0.0,4.0,94,0.00,,CLR,0.00,VWS V14.01,2013-06-18 05:51:00,
2013-06-18 01:56:00,63.5,61.8,29.88,ENE,73,0.0,4.0,94,0.00,,CLR,0.00,VWS V14.01,2013-06-18 05:56:00,
2013-06-18 02:01:00,63.4,61.7,29.88,ENE,74,0.0,0.0,94,0.00,,CLR,0.00,VWS V14.01,2013-06-18 06:01:00,
2013-06-18 02:06:00,63.3,61.5,29.88,East,89,1.0,3.0,94,0.00,,CLR,0.00,VWS V14.01,2013-06-18 06:06:00,
2013-06-18 02:11:00,63.2,61.5,29.88,East,88,0.0,3.0,94,0.00,,CLR,0.00,VWS V14.01,2013-06-18 06:11:00,
2013-06-18 02:16:00,63.2,61.5,29.87,East,88,1.0,3.0,94,0.00,,CLR,0.00,VWS V14.01,2013-06-18 06:16:00,
2013-06-18 02:21:00,63.3,61.2,29.87,ESE,110,0.0,6.0,93,0.00,,CLR,0.00,VWS V14.01,2013-06-18 06:21:00,
2013-06-18 02:26:00,63.4,61.3,29.87,East,96,2.0,6.0,93,0.00,,CLR,0.00,VWS V14.01,2013-06-18 06:26:00,
2013-06-18 02:31:00,63.4,61.0,29.87,East,94,0.0,2.0,92,0.00,,CLR,0.00,VWS V14.01,2013-06-18 06:31:00,
2013-06-18 02:36:00,63.4,61.0,29.87,ESE,102,2.0,4.0,92,0.00,,CLR,0.00,VWS V14.01,2013-06-18 06:36:00,
2013-06-18 02:41:00,63.4,61.0,29.87,ESE,105,1.0,5.0,92,0.00,,CLR,0.00,VWS V14.01,2013-06-18 06:41:00,
2013-06-18 02:47:00,63.4,61.0,29.87,East,90,1.0,6.0,92,0.00,,CLR,0.00,VWS V14.01,2013-06-18 06:47:00,
2013-06-18 02:52:00,63.5,61.1,29.87,East,90,2.0,6.0,92,0.00,,CLR,0.00,VWS V14.01,2013-06-18 06:52:00,
2013-06-18 02:57:00,63.4,61.0,29.87,SE,138,2.0,6.0,92,0.00,,CLR,0.00,VWS V14.01,2013-06-18 06:57:00,
2013-06-18 03:02:00,63.4,61.0,29.86,ESE,107,2.0,5.0,92,0.00,,CLR,0.00,VWS V14.01,2013-06-18 07:02:00,
2013-06-18 03:07:00,63.4,60.7,29.86,ESE,107,1.0,5.0,91,0.00,,CLR,0.00,VWS V14.01,2013-06-18 07:07:00,
2013-06-18 03:12:00,63.5,60.8,29.86,East,98,3.0,5.0,91,0.00,,CLR,0.00,VWS V14.01,2013-06-18 07:12:00,
2013-06-18 03:17:00,63.5,60.8,29.86,ESE,114,1.0,5.0,91,0.00,,CLR,0.00,VWS V14.01,2013-06-18 07:17:00,
2013-06-18 03:22:00,63.5,60.8,29.86,ESE,105,0.0,5.0,91,0.00,,CLR,0.00,VWS V14.01,2013-06-18 07:22:00,
2013-06-18 03:27:00,63.4,60.7,29.86,ESE,105,1.0,5.0,91,0.00,,CLR,0.00,VWS V14.01,2013-06-18 07:27:00,
2013-06-18 03:32:00,63.3,60.6,29.86,ESE,105,0.0,1.0,91,0.00,,CLR,0.00,VWS V14.01,2013-06-18 07:32:00,
2013-06-18 03:37:00,63.2,60.5,29.86,ESE,105,1.0,2.0,91,0.00,,CLR,0.00,VWS V14.01,2013-06-18 07:37:00,
2013-06-18 03:42:00,63.1,60.7,29.86,ESE,105,2.0,2.0,92,0.00,,CLR,0.00,VWS V14.01,2013-06-18 07:42:00,
2013-06-18 03:47:00,63.0,60.6,29.86,ESE,107,0.0,2.0,92,0.00,,CLR,0.00,VWS V14.01,2013-06-18 07:47:00,
2013-06-18 03:52:00,63.1,60.7,29.86,ESE,107,0.0,2.0,92,0.00,,CLR,0.00,VWS V14.01,2013-06-18 07:52:00,
2013-06-18 03:57:00,62.9,60.5,29.86,SE,133,1.0,2.0,92,0.00,,CLR,0.00,VWS V14.01,2013-06-18 07:57:00,
2013-06-18 04:02:00,62.8,60.8,29.86,SE,133,0.0,1.0,93,0.00,,CLR,0.00,VWS V14.01,2013-06-18 08:02:00,
2013-06-18 04:07:00,62.6,60.5,29.85,SE,133,0.0,2.0,93,0.00,,CLR,0.00,VWS V14.01,2013-06-18 08:07:00,
2013-06-18 04:12:00,62.5,60.5,29.86,SE,133,0.0,2.0,93,0.00,,CLR,0.00,VWS V14.01,2013-06-18 08:12:00,
2013-06-18 04:17:00,62.4,60.3,29.85,SE,133,0.0,2.0,93,0.00,,CLR,0.00,VWS V14.01,2013-06-18 08:17:00,
2013-06-18 04:22:00,62.4,60.3,29.86,SE,133,0.0,2.0,93,0.00,,CLR,0.00,VWS V14.01,2013-06-18 08:22:00,
2013-06-18 04:27:00,62.3,60.2,29.85,SE,133,0.0,2.0,93,0.00,,CLR,0.00,VWS V14.01,2013-06-18 08:27:00,
2013-06-18 04:32:00,62.3,60.2,29.85,SE,133,0.0,0.0,93,0.00,,CLR,0.00,VWS V14.01,2013-06-18 08:32:00,
2013-06-18 04:38:00,62.1,60.4,29.85,SE,133,0.0,0.0,94,0.00,,CLR,0.00,VWS V14.01,2013-06-18 08:38:00,
2013-06-18 04:43:00,62.0,60.3,29.86,SE,133,1.0,1.0,94,0.00,,CLR,0.00,VWS V14.01,2013-06-18 08:43:00,
2013-06-18 04:48:00,62.0,60.3,29.86,SE,133,0.0,2.0,94,0.00,,CLR,0.00,VWS V14.01,2013-06-18 08:48:00,
2013-06-18 04:53:00,61.9,60.2,29.86,SE,133,0.0,2.0,94,0.00,,CLR,0.00,VWS V14.01,2013-06-18 08:53:00,
2013-06-18 04:58:00,61.8,60.1,29.86,SE,133,0.0,2.0,94,0.00,,CLR,0.00,VWS V14.01,2013-06-18 08:58:00,
2013-06-18 05:03:00,61.7,60.0,29.86,SE,133,0.0,0.0,94,0.00,,,0.00,VWS V14.01,2013-06-18 09:03:00,
2013-06-18 05:08:00,61.6,60.2,29.86,SE,133,0.0,0.0,95,0.00,,,0.00,VWS V14.01,2013-06-18 09:08:00,
2013-06-18 05:13:00,61.5,60.1,29.86,SE,133,0.0,0.0,95,0.00,,,0.00,VWS V14.01,2013-06-18 09:13:00,
2013-06-18 05:18:00,61.4,60.0,29.86,SE,133,0.0,0.0,95,0.00,,,0.00,VWS V14.01,2013-06-18 09:18:00,
2013-06-18 05:23:00,61.3,59.9,29.86,SE,133,0.0,0.0,95,0.00,,,0.00,VWS V14.01,2013-06-18 09:23:00,
2013-06-18 05:28:00,61.1,59.7,29.87,SE,133,0.0,2.0,95,0.00,,,0.00,VWS V14.01,2013-06-18 09:28:00,
2013-06-18 05:33:00,61.1,59.7,29.87,SE,133,2.0,2.0,95,0.00,,,0.00,VWS V14.01,2013-06-18 09:33:00,
2013-06-18 05:38:00,61.2,60.0,29.87,SE,133,0.0,2.0,96,0.00,,,0.00,VWS V14.01,2013-06-18 09:38:00,
2013-06-18 05:43:00,61.0,59.9,29.88,SE,133,0.0,2.0,96,0.00,,,0.00,VWS V14.01,2013-06-18 09:43:00,
2013-06-18 05:48:00,61.1,60.0,29.87,ESE,104,1.0,3.0,96,0.00,,,0.00,VWS V14.01,2013-06-18 09:48:00,
2013-06-18 05:53:00,61.2,60.0,29.88,East,80,3.0,3.0,96,0.00,,,0.00,VWS V14.01,2013-06-18 09:53:00,
2013-06-18 05:58:00,61.2,59.8,29.88,East,79,1.0,3.0,95,0.00,,,0.00,VWS V14.01,2013-06-18 09:58:00,
2013-06-18 06:03:00,61.2,59.8,29.88,East,79,0.0,1.0,95,0.00,,,0.00,VWS V14.01,2013-06-18 10:03:00,
2013-06-18 06:08:00,61.4,60.0,29.88,East,79,0.0,1.0,95,0.00,,,0.00,VWS V14.01,2013-06-18 10:08:00,
2013-06-18 06:13:00,61.5,60.1,29.88,East,79,0.0,2.0,95,0.00,,,0.00,VWS V14.01,2013-06-18 10:13:00,